This demonstration page uses our WeatherBlox Daily Observations layout. Learn more.

Left ArrowRight Arrow

39.01783, -85.05884

Hourly Observations for September 2, 2020

Temp ( °F °C ) Dew Point ( °F °C ) Humidity (%) Winds ( mph kmh ) Pressure ( in mb ) Visibility ( mi km ) Precip ( " mm )
12:52 am 00:52 Mostly Cloudy 74 23.3 70 21.1 88 88 SSW 5 7 29.83 1010 10 16 0.00 0.00
1:52 am 01:52 Cloudy 74 23.3 70 21.1 88 88 SSW 5 7 29.82 1010 10 16 0.00 0.00
2:52 am 02:52 Cloudy 74 23.3 70 21.1 88 88 SSW 7 11 29.80 1009 10 16 0.00 0.00
3:52 am 03:52 Cloudy 74 23.3 70 21.1 88 88 SSW 9 15 29.80 1009 10 16 0.00 0.00
4:52 am 04:52 Cloudy with Light Rain 74 23.3 70 21.1 88 88 SSW 9 15 29.80 1009 10 16 0.00 0.00
5:52 am 05:52 Cloudy with Rain 73 22.8 70 21.1 90 90 SSW 7 11 29.79 1009 3 5 0.09 2.29
6:02 am 06:02 Cloudy with Heavy Rain 73 22.8 70 21.1 90 90 SSW 6 9 29.79 1009 2 3 0.06 1.52
6:09 am 06:09 Cloudy with Rain 73 22.8 70 21.1 90 90 S 7 11 29.79 1009 3 5 0.09 2.29
6:12 am 06:12 Cloudy with Heavy Rain 73 22.8 71 21.7 94 94 S 8 13 29.79 1009 3 5 0.10 2.54
6:15 am 06:15 Cloudy with Heavy Rain 73 22.8 71 21.7 94 94 S 6 9 29.79 1009 2 3 0.12 3.05
6:21 am 06:21 Cloudy with Heavy Rain 73 22.8 71 21.7 94 94 S 7 11 29.79 1009 2 3 0.18 4.57
6:26 am 06:26 Cloudy with Heavy Rain 73 22.8 71 21.7 94 94 S 6 9 29.79 1009 2 3 0.24 6.10
6:32 am 06:32 Cloudy with Heavy Rain 73 22.8 71 21.7 94 94 SSW 5 7 29.79 1009 2 3 0.36 9.14
6:52 am 06:52 Cloudy with Light Rain 73 22.8 71 21.7 94 94 WSW 6 9 29.79 1009 3 5 0.50 12.70
7:14 am 07:14 Cloudy with Light Rain 73 22.8 70 21.1 90 90 WSW 5 7 29.79 1009 5 8 0.02 0.51
7:33 am 07:33 Cloudy 73 22.8 70 21.1 90 90 WSW 3 6 29.80 1009 7 11 0.03 0.76
7:52 am 07:52 Cloudy 73 22.8 71 21.7 94 94 WSW 5 7 29.80 1009 8 13 0.03 0.76
8:23 am 08:23 Cloudy 73 22.8 70 21.1 90 90 WSW 5 7 29.81 1009 10 16 0.00 0.00
8:52 am 08:52 Cloudy 73 22.8 70 21.1 90 90 SW 9 15 29.82 1010 10 16 0.00 0.00
9:16 am 09:16 Cloudy 73 22.8 70 21.1 90 90 WSW 9 15 29.83 1010 10 16 0.00 0.00
9:52 am 09:52 Cloudy 74 23.3 70 21.1 88 88 SW 9 15 29.83 1010 10 16 0.00 0.00
10:52 am 10:52 Cloudy 75 23.9 70 21.1 84 84 SW 7 11 29.84 1011 10 16 0.00 0.00
11:52 am 11:52 Cloudy 77 25 70 21.1 79 79 WSW 9 15 29.85 1011 10 16 0.00 0.00
12:32 pm 12:32 Cloudy 78 25.6 69 20.6 74 74 WSW 10 17 29.85 1011 10 16 0.00 0.00
12:52 pm 12:52 Mostly Cloudy 80 26.7 69 20.6 69 69 WSW 12 19 29.86 1011 10 16 0.00 0.00
1:52 pm 13:52 Cloudy 80 26.7 69 20.6 69 69 SW 9 15 29.86 1011 10 16 0.00 0.00
2:52 pm 14:52 Mostly Cloudy 80 26.7 68 20 67 67 SW 12 19 29.86 1011 10 16 0.00 0.00
3:52 pm 15:52 Cloudy 80 26.7 69 20.6 69 69 WSW 8 13 29.85 1011 10 16 0.00 0.00
4:52 pm 16:52 Cloudy 80 26.7 69 20.6 69 69 WSW 8 13 29.85 1011 10 16 0.00 0.00
5:52 pm 17:52 Cloudy with Light Rain 79 26.1 70 21.1 74 74 W 5 7 29.85 1011 10 16 0.00 0.00
6:52 pm 18:52 Cloudy 78 25.6 70 21.1 76 76 WSW 6 9 29.86 1011 10 16 0.00 0.00
7:52 pm 19:52 Mostly Cloudy 77 25 70 21.1 79 79 WSW 5 7 29.86 1011 10 16 0.00 0.00
8:52 pm 20:52 Cloudy 76 24.4 70 21.1 82 82 W 5 7 29.86 1011 10 16 0.00 0.00
9:52 pm 21:52 Cloudy 75 23.9 71 21.7 88 88 Calm 29.88 1012 10 16 0.00 0.00
10:52 pm 22:52 Mostly Cloudy 74 23.3 70 21.1 88 88 Calm 29.89 1012 10 16 0.00 0.00
11:52 pm 23:52 Mostly Cloudy 74 23.3 70 21.1 88 88 N 3 6 29.88 1012 10 16 0.00 0.00

Powered by AerisWeather